Capitol Logistics 1146


LIRF
Leonardo da Vinci International Airport
Rome, IT
EBLG
Liège Airport
Liege, BE

Activity Log

Date Flight Route Aircraft Duration
11/13/2019 CPX746 Not Available B738 2h 12m

Route Details

Aircraft Information
Primary: Boeing 737-800BCF
Backup: Not Available
Route Data
Distance: 601nm
Sched. Duration: 1h 55m
Avg. Duration: 2h 12m (+58m)
Times Flown: 1
Recm'd Route: Not Available
Planned Altitude: 36,000ft
Origin Wx: LIRF 280150Z 08004KT CAVOK 01/M02 Q1016 NOSIG
Dest. Wx: EBLG 280150Z 18008KT 4700 BR -DZ SCT003 BKN004 04/03 Q1009 TEMPO 2000 -DZ BKN005
Notes:

Financial History
Total Freight: 15,840lbs
Average Load: 15,840lbs/flt
Fuel Used: 8,500lbs
Avg. Fuel Used: 8,500lbs/flt
Fuel Expense: $7,565
Avg. Fuel Expense: $7,565
Avg. Fuel Cost: $0.89/lbs
Total Gross Income: $34,848
Pilot Pay: $239
Total Expenses: $3,816
Total Revenue: $22,893
Average Revenue: $34,848.00